Regional Weather Roundup
Issued by NWS

Home | Current Version | Previous Version | Text Only | Print | Product List | Glossary Off
Versions: 1 2 3 4 5 6 7 8 9 10 11 12 13 14 15 16 17 18 19 20 21 22 23 24 25 26 27 28 29 30 31 32 33 34 35 36 37 38 39 40 41 42 43 44 45 46 47 48 49 50

000
ASUS43 KBIS 021201
RWRND

NORTH DAKOTA REGIONAL WEATHER ROUNDUP
NATIONAL WEATHER SERVICE BISMARCK ND
600 AM CST MON MAR 02 2015

NOTE: "FAIR" INDICATES FEW OR NO CLOUDS BELOW 12,000 FEET WITH NO
SIGNIFICANT WEATHER AND/OR OBSTRUCTIONS TO VISIBILITY.


NDZ001>003-009>011-017-021300-
NORTHWEST NORTH DAKOTA

CITY           SKY/WX    TMP DP  RH WIND       PRES   REMARKS
WILLISTON      PTCLDY    11   5  77 S5        30.03F WCI   3
6HR MIN TEMP:   2; 6HR MAX TEMP:  13;

MINOT          PTCLDY     7   0  73 SE9       30.13F WCI  -7
$$

NDZ018>021-031>035-040>046-021300-
SOUTHWEST NORTH DAKOTA

CITY           SKY/WX    TMP DP  RH WIND       PRES   REMARKS
BISMARCK       CLEAR      6   3  87 SE9       30.23F WCI  -8
6HR MIN TEMP:   1; 6HR MAX TEMP:   7;

DICKINSON      CLEAR     11   5  77 S14       30.04F WCI  -5
GARRISON         N/A      1  -2  87 CALM      30.15F
6HR MIN TEMP:   1; 6HR MAX TEMP:   4;

HETTINGER ARPT PTCLDY    11   6  81 SE12      30.09F WCI  -3
$$

NDZ004>008-012>016-024-026-027-054-021300-
NORTHEAST NORTH DAKOTA

CITY           SKY/WX    TMP DP  RH WIND       PRES   REMARKS
GRAND FORKS    PTCLDY    -5  -9  83 SW6       30.34F WCI -18
GRND FRKS AFB  PTCLDY     3  -2  79 W5        30.33F WCI  -7
DEVILS LAKE    PTCLDY    -2  -8  78 CALM      30.24F
$$

NDZ022-023-025-028>030-036>039-047>053-021300-
SOUTHEAST NORTH DAKOTA

CITY           SKY/WX    TMP DP  RH WIND       PRES   REMARKS
FARGO          FAIR       4  -1  80 S3        30.37F
6HR MIN TEMP:   1; 6HR MAX TEMP:   8;

JAMESTOWN      PTCLDY    -4  -7  87 S6        30.28F WCI -16
$$



USA.gov is the U.S. government's official web portal to all federal, state and local government web resources and services.